Theta_e
349 345 338 342 344 344 342 347 336 341 338 340 335 335 335 336 338 340 339 338 339 341 341 335 337 335 336 336 336 336 338 340 339 337 332 330 331 331 331 342 344 336 330
348 348 341 343 344 340 342 343 341 340 342 340 339 339 338 339 338 338 338 337 340 339 331 332 333 334 335 336 337 337 338 338 340 338 333 334 336 335 334 334 337 332 330
349 348 344 341 342 343 343 341 339 340 339 340 340 339 339 338 339 340 340 338 335 332 335 334 335 334 333 334 336 337 335 338 338 336 345 347 346 338 338 337 337 334 332
349 353 348 340 340 342 337 331 338 336 337 338 337 334 335 338 341 332 337 339 335 333 335 336 336 337 339 338 336 338 341 338 335 336 347 347 347 339 342 341 336 338 336
350 350 343 335 332 343 330 337 342 341 338 337 342 341 327 329 330 335 338 337 337 337 337 337 337 339 340 341 341 339 341 341 338 344 345 345 345 338 339 340 337 336 335
349 348 340 341 334 344 344 337 328 331 337 337 328 329 327 330 333 336 335 334 334 336 339 340 339 337 338 339 340 341 340 337 340 339 343 338 348 333 336 336 334 336 332
347 350 340 330 336 338 341 338 332 332 340 332 332 333 334 334 332 332 333 336 336 336 335 334 333 334 339 338 338 338 340 336 344 339 338 345 340 327 333 330 336 337 336
343 344 343 337 340 331 328 333 335 332 331 331 333 334 335 333 332 334 332 332 334 335 336 335 338 339 340 338 336 339 341 339 336 338 338 343 338 328 330 335 339 336 328
341 343 347 349 338 329 332 333 330 330 335 339 342 342 343 343 342 342 341 340 342 343 341 340 341 341 339 336 338 338 338 339 341 343 341 343 337 334 333 337 334 329 328
342 343 349 346 342 341 335 330 334 341 344 345 344 343 341 343 344 343 338 342 341 342 343 341 340 340 338 337 337 337 334 339 342 342 342 340 340 340 340 340 340 338 337
342 343 344 343 346 346 346 343 344 341 341 343 343 342 347 351 350 343 341 343 343 342 341 342 342 341 339 337 336 335 340 342 343 342 342 340 340 340 340 341 340 340 339
341 342 341 343 345 346 348 349 348 348 350 348 346 344 350 349 345 349 345 343 343 343 343 342 342 341 349 347 339 343 342 338 341 341 338 339 340 339 339 339 336 331 331
338 341 342 342 343 347 350 350 349 351 345 349 344 348 347 351 349 350 350 349 351 347 349 349 350 349 348 347 349 348 347 344 343 343 340 340 339 339 339 333 330 327 325
338 338 339 341 347 351 349 349 349 350 351 351 348 345 345 349 349 352 351 351 350 351 351 351 349 351 351 347 350 351 348 347 346 345 339 340 340 338 334 332 328 324 323
338 337 342 347 347 346 346 349 350 350 350 350 350 345 352 351 350 353 354 351 351 352 351 350 351 348 351 350 349 350 349 348 348 346 342 339 336 334 334 331 325 323 324
337 337 344 347 343 347 346 344 350 351 349 349 350 347 347 351 349 354 353 352 351 351 353 353 352 351 350 350 350 350 350 347 348 346 345 340 339 337 334 328 325 323 322
335 340 346 349 350 345 343 345 350 350 350 350 351 345 347 352 346 355 353 351 350 351 347 346 349 347 347 348 351 350 348 348 348 348 345 348 345 340 334 331 326 323 322
337 345 347 347 349 348 345 348 350 351 350 352 352 353 347 349 351 355 352 352 351 347 349 349 347 341 344 347 350 350 349 347 350 350 347 346 345 345 341 330 325 324 324
340 347 348 348 350 351 346 350 351 344 351 351 352 352 349 354 352 355 352 354 352 344 344 342 342 346 342 347 349 350 351 351 349 348 350 349 347 341 340 340 327 329 326
342 346 348 349 351 350 351 348 352 351 351 352 352 352 354 353 351 353 353 354 353 348 343 334 335 342 346 347 346 349 350 351 350 349 348 345 345 343 339 338 337 339 335
341 342 347 348 348 350 351 350 351 350 351 350 352 351 344 346 349 351 351 353 354 351 339 345 336 333 343 345 347 346 347 348 347 346 345 344 345 342 340 338 334 333 337
341 343 348 349 345 349 350 350 351 350 350 351 351 348 345 346 346 355 355 354 347 353 346 339 327 337 335 333 342 342 341 343 340 338 340 340 341 339 338 337 337 336 335
342 345 348 349 344 346 352 352 351 353 351 350 351 352 347 343 348 355 351 351 349 352 351 344 323 321 332 322 322 335 336 334 331 336 329 331 324 330 331 333 334 335 337
346 345 348 350 346 343 345 352 350 348 347 347 350 351 349 346 347 353 354 354 349 353 343 344 335 320 325 330 328 318 318 321 329 330 333 330 325 325 325 327 330 334 336
347 346 349 350 347 348 344 349 351 349 349 349 350 350 349 344 345 351 351 350 350 355 345 339 340 329 320 328 330 328 319 327 321 326 324 325 326 330 329 329 330 331 333
346 346 348 351 346 346 345 338 346 350 351 349 349 351 350 349 351 347 348 349 351 351 352 347 340 342 335 317 315 317 326 326 326 325 325 325 326 329 328 329 329 330 330
Wind_Speed
11 12 13 11 10 8 8 8 10 11 8 8 8 8 8 7 7 8 6 6 6 7 8 8 9 9 9 8 8 6 5 7 7 8 9 14 13 11 14 14 16 12 12
15 12 13 11 9 7 9 10 10 11 9 9 9 9 9 9 9 9 9 9 9 8 9 10 11 12 12 12 11 9 7 6 7 7 8 10 11 11 11 11 11 11 12
14 12 12 13 10 9 9 9 9 10 9 10 10 10 9 9 10 10 10 9 9 9 10 10 10 12 12 10 9 8 9 8 7 10 14 7 6 8 7 9 8 9 10
13 12 11 12 11 9 8 9 10 9 9 10 10 9 8 8 9 9 9 9 8 8 8 9 9 10 10 9 8 7 7 10 9 11 9 7 4 6 6 5 7 7 7
12 11 10 11 11 10 9 11 10 9 9 9 9 10 9 9 9 9 9 8 8 8 7 8 7 7 7 6 5 6 6 7 9 10 7 7 5 2 4 4 5 5 6
12 11 12 11 11 11 10 9 10 11 11 8 9 10 10 10 10 9 7 7 6 6 6 5 5 7 6 6 2 5 6 5 9 10 8 7 4 1 2 2 3 4 3
13 10 10 12 11 10 10 10 10 10 10 10 10 9 8 8 8 7 6 5 5 5 4 4 5 5 3 2 2 6 9 9 9 8 5 7 3 3 3 3 2 3 2
12 11 11 12 11 10 11 11 10 10 10 11 10 9 7 6 6 5 5 5 5 5 5 5 6 7 5 5 5 14 12 10 9 5 6 5 5 5 3 2 2 4 3
11 12 10 9 10 10 11 11 10 10 9 9 8 7 6 6 5 6 6 7 7 8 9 8 8 10 9 10 12 12 6 6 7 7 5 5 5 6 5 4 3 4 4
11 11 11 10 9 8 9 11 10 8 5 4 5 4 6 7 6 7 8 8 9 10 11 10 12 15 15 13 13 13 13 15 9 10 8 5 5 5 5 5 5 4 4
12 11 10 9 10 10 9 8 7 7 7 6 7 8 8 5 5 7 10 12 14 14 13 13 14 15 16 16 16 14 15 9 9 9 6 4 4 5 5 6 6 7 6
13 12 11 10 10 10 8 9 7 7 6 6 8 11 7 8 8 7 10 14 14 14 12 11 11 11 14 10 15 15 9 11 9 8 7 7 7 7 7 8 9 9 8
14 14 13 12 11 9 8 7 7 7 10 9 11 10 10 9 8 8 7 7 7 9 6 6 7 7 8 8 9 9 10 10 9 9 8 7 7 8 9 9 9 10 10
15 14 14 12 11 10 7 8 8 9 9 9 9 11 10 8 9 10 8 6 7 5 4 5 5 5 4 7 7 7 9 8 9 7 8 9 8 7 8 8 10 11 10
16 16 15 14 13 12 12 8 9 9 8 8 8 10 9 7 10 7 8 6 4 5 4 6 5 5 5 4 4 6 6 6 7 6 7 9 8 7 7 8 11 13 12
17 17 17 15 16 12 10 11 9 8 8 8 8 9 8 7 9 7 7 6 4 3 3 4 4 4 4 4 3 4 6 5 7 7 5 5 5 4 5 8 10 12 11
18 18 18 15 13 13 12 10 8 8 7 9 7 8 9 7 9 7 6 7 6 6 5 2 4 4 3 5 6 6 5 7 4 6 5 2 4 2 3 6 9 11 10
19 20 17 15 13 12 11 10 9 9 8 8 7 6 7 7 6 8 7 7 8 7 5 3 3 2 4 6 7 6 5 5 5 5 3 2 0 4 7 4 7 9 8
21 21 19 16 13 12 14 10 10 10 8 7 7 6 7 5 6 8 6 6 10 8 6 6 6 6 7 7 5 5 5 4 4 1 2 1 2 1 3 9 7 7 7
21 22 20 17 14 15 13 13 9 8 7 7 6 4 5 3 5 6 5 7 9 7 6 9 10 10 8 7 5 4 3 3 2 0 1 1 4 2 2 2 7 7 13
22 24 22 19 19 17 14 12 10 9 8 6 5 4 4 4 4 8 5 7 8 7 7 7 7 8 7 7 5 4 3 3 1 1 1 3 5 4 4 5 4 4 11
26 26 23 21 23 19 15 14 11 10 8 7 5 4 3 5 8 8 9 7 7 7 9 7 6 2 3 5 3 2 1 0 2 2 3 3 5 5 7 8 7 7 5
29 29 25 22 24 21 17 16 14 11 9 7 6 3 2 4 6 6 9 9 9 8 5 7 6 5 1 3 2 1 1 3 5 3 5 3 8 5 7 8 7 7 8
30 28 27 24 24 24 23 17 16 13 12 9 8 6 4 4 4 3 5 7 9 6 7 6 6 5 4 1 4 3 1 3 3 3 5 6 7 7 9 5 6 6 7
30 30 28 26 26 23 24 21 18 16 14 11 10 8 6 3 2 1 3 4 6 5 6 5 4 4 4 3 2 1 3 3 3 3 6 7 8 7 7 5 4 4 7
32 31 30 29 31 29 27 27 24 20 16 14 12 9 7 5 4 2 1 4 4 4 6 7 5 5 4 2 0 1 2 2 4 4 7 8 8 7 7 5 5 6 7
Wind_Direction
143 144 131 129 116 114 111 112 105 107 105 109 104 102 104 104 107 96 93 96 89 90 84 79 81 82 83 90 101 113 121 113 108 98 99 108 102 93 91 88 73 95 92
141 142 136 129 114 110 115 107 105 109 111 107 104 98 96 95 91 92 93 89 94 91 81 74 71 75 79 84 86 95 108 121 121 114 111 109 106 94 96 100 122 90 88
139 144 135 131 133 122 122 118 112 108 108 103 99 93 93 96 97 97 97 97 89 91 93 77 75 74 76 82 84 92 99 111 121 119 93 92 101 99 89 87 84 74 70
141 141 140 135 137 135 135 123 116 108 110 105 98 99 105 104 100 99 101 97 97 96 86 78 75 70 71 75 87 101 110 113 118 117 96 111 107 105 110 100 93 87 77
144 141 151 135 140 128 123 127 124 123 110 109 103 102 94 107 109 107 99 94 90 87 84 79 71 66 65 74 99 124 125 130 128 100 118 117 101 98 115 115 90 103 119
142 141 146 138 139 134 138 127 116 117 110 110 103 96 97 106 110 107 103 92 82 77 66 57 50 41 48 52 90 147 140 147 155 148 106 87 99 85 108 111 126 122 124
138 146 142 143 142 142 135 123 119 114 109 103 99 98 97 99 102 101 94 87 79 65 59 47 36 33 19 2 202 166 145 134 137 151 158 106 85 78 90 89 77 67 57
148 145 138 140 140 141 136 125 119 114 114 109 108 103 98 92 96 95 91 77 63 58 50 51 43 15 59 59 104 143 158 175 140 142 116 117 73 75 86 86 66 46 24
144 143 142 140 145 140 131 123 121 120 114 109 102 98 87 90 81 75 69 69 65 65 73 66 54 54 73 68 101 111 122 137 152 157 119 98 80 83 84 81 74 47 39
145 148 149 151 145 131 123 130 125 121 118 116 108 97 73 73 66 75 77 55 61 69 73 69 62 67 73 80 102 109 108 111 118 124 131 121 92 77 74 64 51 39 30
155 152 155 151 140 142 133 129 110 103 95 97 96 96 77 88 80 81 71 68 72 76 81 79 71 69 82 80 84 89 83 109 109 118 123 110 95 83 68 57 53 37 24
159 156 152 152 152 139 132 122 123 102 129 116 108 103 86 93 81 85 81 77 78 85 79 75 73 78 78 81 82 79 102 102 104 104 103 99 91 85 77 65 61 46 29
162 158 158 156 149 139 149 127 113 102 91 92 101 96 96 85 78 76 72 67 72 73 65 67 70 87 101 97 97 97 92 89 91 95 86 89 90 80 78 72 48 31 19
165 161 155 157 153 153 139 129 119 105 99 98 107 101 92 80 88 98 95 75 69 77 85 82 89 98 90 98 110 94 83 89 93 94 77 80 87 82 76 58 36 19 14
165 166 159 159 154 148 136 143 133 117 113 112 105 112 104 109 95 92 83 82 96 68 69 91 83 90 78 91 99 104 102 95 101 111 89 85 80 73 63 42 23 10 8
169 170 163 156 153 151 146 146 134 127 118 119 112 117 105 92 101 82 58 42 46 86 94 89 77 64 78 88 92 118 113 102 112 105 84 76 72 41 46 30 15 8 12
171 168 170 161 163 156 148 147 140 130 134 126 119 110 110 96 93 81 56 58 49 57 82 78 69 54 91 77 104 122 116 123 118 120 100 77 5 5 19 357 359 9 14
171 173 171 164 165 158 155 149 144 143 140 129 120 108 98 79 85 66 62 54 57 59 78 75 57 58 122 115 111 107 120 125 140 138 144 111 88 329 334 323 357 0 3
177 177 175 171 172 168 156 153 146 156 141 141 125 108 92 81 79 81 63 53 62 63 78 70 58 83 120 114 105 104 122 123 105 153 182 213 232 210 280 319 339 340 344
183 183 179 178 180 173 170 159 159 162 153 143 137 139 102 76 56 82 32 59 63 59 58 70 81 86 107 117 119 117 128 113 108 144 286 334 276 245 272 296 336 320 328
187 185 186 186 191 181 178 171 170 166 163 159 147 139 105 72 52 65 54 62 51 52 61 51 58 79 79 109 94 92 96 90 76 302 301 278 289 308 275 288 309 298 315
188 186 190 189 192 186 183 176 174 176 168 172 163 145 127 94 87 60 69 61 76 37 36 46 80 98 73 92 118 100 102 54 355 314 294 282 271 280 293 293 273 279 285
191 189 191 192 195 193 190 186 185 182 180 178 186 169 160 120 105 80 62 56 50 62 28 42 50 81 53 33 99 126 340 31 335 300 325 314 313 320 300 298 288 270 279
196 194 192 194 196 200 200 194 190 189 188 186 185 186 165 146 127 87 66 51 50 60 43 27 33 43 74 44 31 33 356 291 326 323 326 330 343 337 310 302 276 269 262
199 199 198 198 201 200 206 195 200 188 194 192 189 201 182 189 152 124 42 35 34 50 36 50 46 48 41 72 55 9 348 343 326 319 334 344 340 336 340 333 275 262 275
201 202 203 203 206 209 212 207 201 204 195 195 193 202 200 202 227 252 333 30 18 11 21 25 31 39 41 43 107 17 358 333 330 334 326 336 335 328 334 320 306 276 281